Weather History for McCall, ID

Change the Weather History Date:

Saturday, February 9, 2013

  Actual Average Record
Temperature  
Mean Temperature 26 °F 21 °F  
Max Temperature 31 °F 32 °F 55 °F (1963)
Min Temperature 20 °F 10 °F -33 °F (1933)
Degree Days  
Heating Degree Days 39 44  
Month to date heating degree days 349 396  
Since 1 July heating degree days 5202 5870  
Cooling Degree Days 0 0  
Month to date cooling degree days 0 0  
Year to date cooling degree days 0 0  
Moisture  
Dew Point 16 °F    
Average Humidity 64    
Maximum Humidity 75    
Minimum Humidity 53    
Precipitation  
Precipitation T in 0.06 in 0.91 in (1999)
Month to date precipitation 0.02 0.66  
Year to date precipitation 2.92 2.39  
Sea Level Pressure  
Sea Level Pressure 29.96 in    
Wind  
Wind Speed 11 mph (NNW)    
Max Wind Speed 23 mph    
Max Gust Speed 29 mph    
Visibility 10 miles    
Events Snow    
T = Trace of Precipitation, MM = Missing Value Source: NWS Daily Summary

Daily Weather History Graph

Daily Weather History Graph

Search for Another Location

Airport:

Trip Planner

Search our weather history database for the weather conditions in past years. The results will help you decide how hot, cold, wet, or windy it might be!

Date:

Astronomy

Feb. 09, 2013 Rise Set
Actual Time 7:53 AM MST 6:04 PM MST
Civil Twilight 7:22 AM MST 6:35 PM MST
Nautical Twilight 6:48 AM MST 7:09 PM MST
Astronomical Twilight 6:14 AM MST 7:43 PM MST
Moon 7:07 AM MST (2/9) 5:54 PM MST (2/9)
Length of Visible Light 11h 12m
Length of Day
10h 11m
Waning Crescent, 0% of the Moon is Illuminated
Feb 9
Waning Crescent
Feb 10
New
Feb 17
First Quarter
Feb 25
Full
Mar 4
Last Quarter

Hourly Weather History & Observations

Time (MST) Temp. Windchill Dew Point Humidity Pressure Visibility Wind Dir Wind Speed Gust Speed Precip Events Conditions
12:51 AM 24.1 °F 13.1 °F 14.0 °F 65% 29.95 in 10.0 mi North 11.5 mph - N/A   Clear
1:51 AM 23.0 °F 13.1 °F 12.9 °F 65% 29.95 in 10.0 mi NW 9.2 mph - N/A   Clear
2:51 AM 24.1 °F 14.4 °F 14.0 °F 65% 29.95 in 10.0 mi NNW 9.2 mph - N/A   Clear
3:51 AM 24.1 °F 12.5 °F 14.0 °F 65% 29.94 in 10.0 mi North 12.7 mph - N/A   Mostly Cloudy
4:51 AM 24.1 °F 11.5 °F 12.0 °F 60% 29.94 in 10.0 mi North 15.0 mph 21.9 mph N/A   Scattered Clouds
5:51 AM 23.0 °F 11.7 °F 12.0 °F 63% 29.95 in 10.0 mi North 11.5 mph - N/A   Clear
6:51 AM 21.9 °F 11.7 °F 10.9 °F 63% 29.96 in 10.0 mi North 9.2 mph - N/A   Clear
7:51 AM 19.9 °F 10.1 °F 10.0 °F 65% 29.98 in 10.0 mi NNW 8.1 mph - N/A   Clear
8:51 AM 23.0 °F 11.7 °F 10.9 °F 60% 29.98 in 10.0 mi North 11.5 mph - N/A   Clear
9:51 AM 25.0 °F 13.6 °F 12.0 °F 58% 29.99 in 10.0 mi NNW 12.7 mph 21.9 mph N/A   Clear
10:51 AM 27.0 °F 15.6 °F 12.0 °F 53% 29.98 in 10.0 mi North 13.8 mph - N/A   Clear
11:51 AM 28.9 °F 17.7 °F 15.1 °F 56% 29.97 in 10.0 mi North 15.0 mph 23.0 mph N/A   Clear
12:51 PM 30.0 °F 19.1 °F 16.0 °F 56% 29.95 in 10.0 mi North 15.0 mph 28.8 mph N/A   Clear
1:51 PM 30.0 °F 17.9 °F 18.0 °F 61% 29.94 in 10.0 mi NNW 18.4 mph 28.8 mph N/A   Partly Cloudy
2:51 PM 30.0 °F 18.3 °F 17.1 °F 59% 29.95 in 10.0 mi North 17.3 mph 27.6 mph N/A   Mostly Cloudy
3:51 PM 28.0 °F 17.5 °F 19.0 °F 69% 29.97 in 10.0 mi North 12.7 mph 23.0 mph N/A   Overcast
4:28 PM 28.4 °F 17.5 °F 19.4 °F 69% 29.87 in 7.0 mi North 13.8 mph 23.0 mph 0.00 in Snow Light Snow
4:51 PM 27.0 °F 16.1 °F 19.9 °F 75% 29.97 in 10.0 mi North 12.7 mph - 0.00 in   Overcast
5:08 PM 26.6 °F 16.8 °F 19.4 °F 74% 29.87 in 10.0 mi North 10.4 mph - N/A   Overcast
5:51 PM 28.0 °F 18.6 °F 18.0 °F 66% 29.98 in 10.0 mi North 10.4 mph - N/A   Overcast
6:51 PM 27.0 °F 19.5 °F 18.0 °F 69% 30.00 in 10.0 mi North 6.9 mph - 0.00 in   Overcast
7:51 PM 26.1 °F 16.2 °F 18.0 °F 71% 30.02 in 10.0 mi North 10.4 mph - 0.00 in   Overcast
8:51 PM 26.1 °F 20.5 °F 19.0 °F 75% 30.01 in 10.0 mi West 4.6 mph - 0.00 in   Overcast
9:21 PM 26.6 °F - 17.6 °F 69% 29.91 in 10.0 mi Calm Calm - N/A   Overcast
9:35 PM 26.6 °F 19.1 °F 17.6 °F 69% 29.91 in 10.0 mi Variable 6.9 mph 17.3 mph N/A   Mostly Cloudy
9:51 PM 25.0 °F 16.3 °F 18.0 °F 75% 30.03 in 10.0 mi WNW 8.1 mph - N/A   Mostly Cloudy
10:51 PM 25.0 °F - 17.1 °F 72% 30.04 in 10.0 mi Calm Calm - N/A   Partly Cloudy
11:51 PM 23.0 °F - 18.0 °F 81% 30.05 in 10.0 mi Calm Calm - N/A   Partly Cloudy